Погода в Котбусе

Германия     51˚45′25″N   14˚19′59″E
темп.,
°C
ветер,
м/с
пор.,
м/с
влажн.,
%
обл.,
%
осадки,
мм/ч
давл.,
гПа
погр.,
м
5 декабря, сб
сб501:00+1˚вюв5117756 0.0 996216
04:00+1˚юв35793 0.0 99572
07:00+5˚юв7187942 0.0 996571
10:00+5˚ююз468582 0.0 1000116
13:00+6˚зюз117474 0.0 100328
16:00+4˚ююв1185100 0.0 100422
19:00+4˚в239088 0.0 100422
22:00+5˚в3490100 0.0 100372
6 декабря, вс
вс601:00+4˚в5109294 0.0 1003165
04:00+5˚в589124 0.0 1001144
07:00+5˚в588926 0.0 1001144
10:00+7˚в488322 0.0 1002195
13:00+10˚в587661 0.0 1002259
16:00+9˚вюв5108188 0.0 1002168
19:00+8˚вюв6137994 0.0 1002344
22:00+9˚вюв716751 0.0 1001590
7 декабря, пн
пн701:00+9˚вюв8177118 0.0 1001684
04:00+8˚вюв6147342 0.0 999442
07:00+8˚вюв6157471 0.0 1000687
10:00+10˚юв71571100 0.0 1001967
13:00+10˚ююв71270100 0.0 1002925
16:00+8˚ююв4881100 0.1 1004190
19:00+7˚зсз3582100 0.1 1006221
22:00+6˚сз2372100 0.0 1007167
8 декабря, вт
вт801:00+6˚ссз2273100 0.0 100889
04:00+3˚всв239050 0.0 100727
07:00+5˚в348757 0.0 1008116
10:00+7˚вюв387799 0.0 1009275
13:00+9˚ююв576666 0.0 1009991
16:00+6˚юв357924 0.0 101095
19:00+4˚юв338429 0.0 101145
22:00+4˚вюв468834 0.0 1012128
9 декабря, ср
ср901:00+6˚в478267 0.0 1012206
04:00+3˚в489199 0.0 1012211
07:00+2˚в499598 0.0 1012267
10:00+3˚в5108639 0.0 1013376
13:00+3˚в698646 0.0 1012372
16:00+3˚в5787100 0.0 1012413
19:00+3˚в4784100 0.0 1012425
22:00+2˚вюв4786100 0.0 1012366